FENGYUN 1C DEB, 32218

Orbit data source: Space-Track

FENGYUN 1C DEB, 32218 is space debris in SSO originally from a launch on Mon, 10 May 1999 UTC launched from the Taiyaun Space Center, China (TSC). Fengyun 1C debris stems from the Chinese weather satellite Fengyun-1C, which was intentionally destroyed by a Chinese anti-satellite missile in 2007. This event dramatically increased the amount of space debris, with thousands of trackable fragments posing hazards to satellites and human spaceflight. The Fengyun 1C debris cloud has become a focal point in discussions about space sustainability and the need for international regulations to prevent the creation of new debris.

Loading next visibility...
Identifier
32218, 1999-025CVQ
Orbit
SSO
Country
Flag of CNCN / PRC
Related business
Manufacturer
Unknown
Mission
Spacecraft
Bus & Motor
Unknown
Mass
Unknown
Launch date (UTC)
1999-05-10 (27 years ago)
Launch vehicle
Unknown
Launch site
Taiyaun Space Center, China (TSC)
Object type
Payload
Rocket body
Debris
Shape & HBR
Unknown shape, 0.1 m
Radar Cross Section
Small (<0.1 m²)

Expand to show TLE details & history
Last TLE update: 2 days ago

TLE from 2 days ago
0 FENGYUN 1C DEB
1 32218U 99025CVQ 26069.53099681  .00005570  00000-0  12329-2 0  9991
2 32218  98.8120 273.2861 0061675 159.5321 229.7186 14.56449354975108
Epoch: 2026-03-10T12:44Z
TLE epoch observation values (Epoch: 2026-03-10T12:44:38.124Z)
Latitude
28.38991°
Longitude
-90.86142°
Altitude
736.598 km
Speed
7.474 km/s
True Right ascension
17h 54m 01s
True Declination
28° 14' 45"
Sunlit
Object was in daylight at epoch
Visualization orbit readout
Latitude
Unknown
Longitude
Unknown
Altitude
Unknown
Speed
Unknown
Apparent Right ascension
Unknown
Apparent Declination
Unknown
Sunlit
N/A
Visualization observer readout
Local Sidereal Time
20:01:10
Azimuth
Unknown
Elevation
Unknown
Doppler factor
Unknown
Orbital elements
Apogee altitude
745.442 km
Perigee altitude
658.112 km
Semi-major axis
7,079.914 km
Eccentricity
0.00617
Inclination
98.812°
RAAN
273.2861°
Arg. of periapsis
159.5321°
True anomaly
229.18212°
Mean anomaly
229.7186°
Eccentric anomaly
229.45009°
Mean motion
3.64335 °/min
Orbital period
98.81 mins
BSTAR
0.0012329
Loading maneuver chart data...
Computing Atmospheric mass density...

Documentation

Showing up to 5 results
|